If you wish to contribute or participate in the discussions about articles you are invited to join SKYbrary as a registered user

Tarbes-Lourdes-Pyrénées Airport

From SKYbrary Wiki
LFBT
Airport
ICAO: LFBT – IATA: LDE
Summary
Name Tarbes-Lourdes-Pyrénées Airport
Region Europe
Territory France FR.gif
Location Ossun, Midi-Pyrenees
Serving Tarbes
Elevation 383.743 m
1,259 ft
1,259 ft383.743 m
Coordinates 43° 10' 56.7821", -0° 0' 14.6255"
Runways
Designator Length Width Surface ROPS
2/20 3000 m9,842.52 ft 45 m147.638 ft ASP yes/yes
METAR
Observation LFBT 220600Z AUTO 16010KT CAVOK 06/M02 Q1013 NOSIG
Station Tarbes Ossun Lourdes
Date/Time 22 November 2017 06:00:00
Wind direction 160°
Wind speed 10 kts
Lowest cloud amount clouds and visibility OK
Temperature 6°C
Dew point
Humidity 56%
QNH 1013 hPa
Weather condition n/a

WX
Tag(s) Fog
Low Level Turbulence

Tarbes Airport

ICAO: LFBT IATA: LDE

Description

International airport serving Tarbes.

Climatology

Temperate Marine climate/Oceanic climate (Köppen climate classification Cfb). Moderately cool summer and comparatively warm winter. Prevailing south-westerly winds from the Atlantic Ocean.

Maps

Terrain

Loading map...

Airport Layout

Loading map...


Accidents & Serious Incidents at or in vicinity of LFBT

None on SKYbrary